CAPE
4600 4354 4281 4037 3892 3454 3437 3481 3262 3110 2833 2428 2102 1890 1376 1249 888 758 728 832 976 841 848 918 792 808 901 948 969 833 859 937 687 531 563 493 426 374 297 356 400 407
4654 4620 4427 4204 3893 3620 3540 3464 3300 3241 3056 2651 2154 1860 1421 1342 1150 890 860 903 1059 817 914 949 941 936 989 816 1012 941 1054 804 733 560 566 569 543 469 377 335 323 358
4752 4730 4671 4442 3955 3920 3638 3678 3483 3339 2957 2685 2195 1883 1673 1524 1383 1058 971 962 989 751 844 972 974 1059 903 786 1017 926 802 950 708 476 574 612 492 504 380 240 198 258
4890 4798 4675 4340 4023 4080 3830 3708 3540 3369 3005 2494 2296 2008 1703 1474 1238 1159 1006 987 910 788 775 843 805 839 774 779 992 915 867 978 785 610 569 568 494 367 276 242 240 237
4908 4785 4586 4282 4093 4092 3920 3634 3350 3272 3025 2730 2460 2034 1681 1362 1109 1076 1004 1086 944 844 789 844 843 643 790 777 952 825 662 763 671 566 548 474 414 372 293 260 298 258
4894 4758 4520 4316 4184 4158 3735 3556 3436 3178 3059 2701 2425 1838 1524 1414 1026 749 922 946 914 660 514 673 714 616 630 742 786 637 510 404 432 589 591 532 378 259 201 249 288 298
4796 4590 4353 4117 4070 3932 3708 3552 3423 3129 2828 2544 2184 1685 1274 1187 991 735 912 1002 767 664 478 470 664 554 508 542 547 671 604 659 541 561 610 485 438 382 280 258 292 328
4426 4257 4170 3962 3880 3814 3614 3423 3279 2980 2722 2186 1936 1725 1294 850 901 848 978 965 716 503 476 540 645 708 568 435 563 600 653 549 450 430 544 567 467 450 380 316 304 384
4096 3853 3586 3148 3427 3425 3224 3172 3054 2890 2468 2221 1844 1377 1362 848 845 906 1024 1112 859 550 642 730 816 919 682 526 566 607 608 476 400 510 570 515 498 516 453 385 354 370
3814 3536 3213 2960 2945 2982 2861 2824 2769 2815 2530 2224 1584 868 1274 1200 942 1082 1179 1296 1047 681 721 869 896 924 754 574 788 875 730 608 611 626 597 560 564 580 465 458 468 474
3697 3392 3176 2969 2974 2717 2771 2615 2426 2163 2187 1670 1308 904 1246 1420 1330 1329 1310 1412 1063 781 726 732 744 855 750 604 691 762 783 741 777 858 844 852 728 644 547 573 521 577
3664 3198 3086 2957 2869 2674 2536 2426 2180 1714 1559 1172 1265 938 876 1012 1202 1233 1288 1286 1098 832 768 651 709 766 728 729 647 714 842 866 806 851 822 884 779 665 624 610 581 625
3772 3368 3135 2786 2688 2642 2499 2093 1805 1684 1152 924 714 582 724 698 828 963 1091 1131 1144 1061 792 658 760 810 939 1035 978 820 891 1016 907 863 968 958 908 768 540 406 534 687
3676 3295 2959 2674 2468 2508 2338 1972 2016 1530 1238 983 848 635 633 586 561 853 872 877 956 1080 990 814 800 954 1106 1062 840 849 912 1018 1197 1128 950 842 908 906 709 442 456 600
3208 3032 2855 2890 2719 2852 2728 2457 2179 1866 1316 1132 1004 726 476 416 388 454 678 1015 1038 1161 1100 890 802 923 886 772 926 1066 1134 1070 1191 1162 1108 848 672 619 572 678 549 395
2538 2850 2776 2810 2527 2571 2628 2607 2244 1809 1312 1178 1092 704 752 713 369 406 532 996 1084 1190 1089 1053 995 896 837 672 792 1036 1154 1260 1128 1057 1018 854 719 726 646 522 484 575
2332 2387 2571 2648 2626 2543 2519 2577 2272 1982 1448 1367 1311 991 963 1134 999 826 729 971 1012 982 1086 1060 1024 963 881 817 716 506 848 702 901 963 1063 986 774 746 771 621 456 438
2544 2204 2134 2650 2799 2750 2539 2582 2402 2060 1677 1683 1534 1478 1387 1326 1216 1214 1244 1072 1009 971 1042 1138 1108 954 876 726 430 3 174 864 533 557 842 883 864 773 681 637 668 587
2573 2382 2174 2279 2796 2788 2379 2282 2132 1978 1733 1602 1554 1560 1397 1607 1453 1425 1629 1463 1210 1168 1014 978 1044 906 780 522 116 0 0 232 496 406 566 840 846 786 784 742 735 716
2622 2207 2207 2142 2527 2753 2459 2285 2186 2088 1723 1225 1337 1522 1377 1550 1232 1282 1564 1545 1332 1248 1123 1045 1010 647 526 416 0 0 0 80 539 488 614 786 893 915 880 837 804 736
2356 2315 2176 2180 2282 2655 2618 2370 2246 2156 1875 1365 1091 1078 1438 1490 1196 1600 1576 1553 1306 1204 1296 1304 1270 614 484 380 0 0 0 4 406 594 685 834 920 1040 1130 1090 994 1016
2291 2231 2220 2217 2282 2399 2606 2388 2122 1752 1662 1511 1276 1032 880 1050 1598 1296 1434 1504 1460 1408 1222 1266 1188 673 482 369 0 0 0 16 365 588 791 953 1079 1132 1151 1057 1114 1297
2174 2220 2296 2337 2392 2452 2366 2194 1861 1848 1770 1682 1593 1220 748 905 1094 593 1339 1449 1323 1410 1425 1362 1381 1452 694 421 311 83 0 247 498 668 905 1200 1318 1188 1180 1440 1648 1823
2272 2229 2264 2274 2372 2610 2533 2364 2241 1744 1814 1701 1649 1148 841 556 1000 1106 1534 1368 1129 1252 1196 1276 1627 1412 1201 874 477 36 24 628 931 1220 1456 1510 1420 1419 1462 1382 1353 1389
2344 2381 2327 2300 2458 2611 2546 2381 1987 1608 1680 1650 1504 1280 952 978 993 816 1273 1373 1268 1298 1397 1446 1497 1234 984 932 848 772 654 676 1011 1367 1457 1351 1292 1250 1235 1344 1454 1279
2438 2452 2390 2406 2579 2534 2252 1879 1803 1662 1542 1457 1404 1375 1019 660 864 702 1317 1220 1308 1369 1256 1511 1572 1700 2541 1127 1020 904 868 878 1280 1339 1368 1304 1324 978 1124 1312 1517 1725
Wind_Speed
18 18 18 18 19 17 19 20 20 20 19 19 20 21 23 24 25 26 25 24 22 20 21 22 23 22 21 19 19 19 18 17 17 18 19 18 19 19 20 20 19 18
18 19 20 19 19 18 19 20 20 22 22 21 20 21 22 24 26 26 26 25 23 21 21 22 22 22 21 20 20 19 20 19 18 19 19 19 19 20 20 19 18 19
19 20 21 22 20 21 22 23 23 23 22 21 20 22 23 25 25 25 26 25 24 22 22 21 22 22 22 20 20 20 21 20 18 18 19 18 19 21 20 19 18 20
19 20 21 21 20 22 23 23 24 24 23 22 23 24 24 24 25 25 25 25 23 23 22 21 21 22 22 21 20 20 21 21 19 18 18 18 20 21 20 19 19 20
18 19 19 20 20 22 24 25 25 26 26 26 26 27 27 26 26 25 24 25 24 24 24 22 22 22 22 21 20 20 21 20 20 19 18 19 20 21 21 20 18 19
18 19 20 21 22 25 26 26 27 27 28 29 29 29 29 29 27 26 25 25 25 25 25 25 24 22 22 22 20 20 21 20 21 21 19 19 19 21 21 21 19 19
21 22 23 24 25 26 28 29 30 30 31 32 34 32 32 32 30 28 28 27 25 25 26 26 25 24 24 23 22 22 22 21 21 21 20 20 20 21 21 21 21 21
23 25 28 27 27 29 32 35 35 35 36 38 38 37 36 35 34 32 29 29 29 28 28 28 28 26 25 25 24 24 24 24 22 21 20 20 20 21 21 22 23 23
26 28 30 28 28 30 33 36 36 36 38 40 40 41 41 38 37 35 32 32 34 34 32 32 30 28 27 26 26 26 26 24 23 22 21 20 21 21 21 22 22 23
25 26 30 31 31 30 33 35 36 36 37 36 37 38 41 42 40 38 37 38 39 38 35 33 32 30 28 27 26 26 25 23 23 23 21 21 20 20 20 22 22 23
26 25 28 30 32 33 37 39 40 38 37 35 34 36 40 38 38 38 40 41 40 38 36 34 33 31 29 27 26 26 24 24 24 24 23 22 21 20 19 20 22 24
26 25 27 30 33 34 38 40 43 43 42 39 39 40 41 40 38 36 37 38 37 37 36 36 34 31 29 27 26 26 25 25 25 25 24 24 22 21 21 22 24 25
25 27 28 30 33 32 34 38 41 41 40 40 39 37 37 36 37 37 35 34 34 36 37 37 35 31 29 28 27 26 25 25 25 25 25 26 25 23 23 24 26 28
25 31 33 33 32 33 36 39 42 40 40 39 37 33 33 35 36 38 35 33 32 34 35 36 34 32 29 28 27 26 26 26 26 25 25 27 27 26 25 25 27 29
28 32 34 35 37 37 37 39 41 42 41 40 39 36 34 36 38 38 35 33 32 33 34 34 33 31 29 27 26 26 26 26 26 25 27 28 28 27 27 28 28 29
32 34 36 37 38 39 39 38 39 40 41 41 41 40 38 39 40 38 35 34 34 35 34 32 30 29 28 26 25 27 28 28 26 26 28 29 29 29 28 28 28 29
34 35 36 39 40 40 40 41 41 40 39 39 39 40 40 42 41 38 33 31 34 35 34 31 30 29 30 32 31 29 29 26 25 27 29 29 28 29 28 27 27 29
37 37 38 39 41 42 43 43 42 41 40 38 38 39 39 40 40 36 31 31 33 33 32 31 29 29 35 35 32 nan 30 27 26 28 29 28 28 28 28 28 28 29
40 39 39 40 42 44 45 44 44 44 43 41 40 40 40 39 38 35 31 32 34 34 31 29 25 28 33 32 30 nan nan 29 27 27 27 27 27 27 27 28 28 30
41 40 41 41 43 46 48 46 46 45 46 45 42 40 38 35 34 33 31 32 34 34 30 25 20 26 31 31 nan nan nan nan 26 27 28 27 27 27 28 27 28 29
42 42 42 41 44 48 49 48 48 45 46 46 42 39 37 33 33 35 33 31 33 33 30 24 20 27 31 30 nan nan nan nan 25 27 28 29 29 29 28 28 28 30
44 45 44 43 46 49 50 50 48 46 47 46 41 38 36 34 33 35 32 31 34 34 30 25 22 31 30 27 nan nan nan nan 27 28 28 29 31 30 28 28 30 30
45 46 46 45 47 49 51 51 48 47 48 45 40 36 36 36 34 34 31 34 37 34 30 26 23 31 30 27 26 nan nan 28 29 29 30 31 31 29 27 28 31 33
46 47 47 47 48 49 51 50 46 46 48 45 39 36 35 35 36 31 31 37 38 32 31 28 26 31 34 30 30 nan nan 30 29 30 31 32 31 29 28 28 30 35
47 48 48 48 48 49 51 50 47 47 48 42 36 35 34 33 34 32 31 36 36 32 32 29 26 33 40 35 36 38 34 31 30 30 31 31 31 29 27 28 32 40
49 49 48 47 48 50 51 50 49 50 48 40 35 34 33 31 33 32 33 35 36 34 33 29 29 31 37 40 43 41 38 35 34 31 30 31 29 26 26 31 37 40
Wind_Direction
312 313 318 322 324 325 323 323 319 320 323 320 316 315 315 315 316 316 319 320 322 323 322 320 318 316 313 311 310 309 305 307 308 309 313 314 313 314 313 312 315 319
316 314 311 316 319 322 321 322 319 315 314 314 311 310 310 311 314 315 317 320 320 322 321 320 316 315 313 310 309 309 307 306 309 309 314 317 312 310 311 313 317 320
313 312 312 315 318 321 319 317 315 311 309 309 310 306 306 307 310 312 315 318 318 319 319 318 316 313 312 309 306 308 308 307 308 313 315 314 310 309 310 312 314 321
310 308 309 313 315 315 312 310 310 307 306 306 306 305 304 305 307 310 312 314 313 314 316 317 316 313 312 308 305 305 306 305 307 310 313 312 312 312 313 311 314 320
308 306 306 307 308 307 306 308 310 307 307 306 306 307 307 306 307 309 310 310 310 312 313 316 315 314 310 306 304 302 303 305 307 311 313 313 312 313 311 309 312 322
299 300 301 304 307 308 310 312 313 311 312 312 311 309 308 309 310 311 309 308 309 311 311 313 314 313 311 307 303 302 303 304 303 308 311 311 309 309 308 305 305 312
300 303 310 310 313 314 314 316 315 314 314 313 309 309 307 308 312 314 310 306 305 304 305 306 309 310 307 305 305 305 305 303 301 304 309 309 309 310 311 307 303 302
315 319 318 312 309 311 318 320 317 314 313 311 311 310 309 308 310 309 308 306 303 301 301 303 305 305 304 302 304 305 306 302 302 306 309 311 310 309 311 310 307 303
328 327 323 322 317 317 325 324 321 318 314 312 310 308 306 306 305 303 303 305 302 299 299 302 304 304 302 300 302 305 303 299 298 301 305 307 309 310 310 308 309 305
326 324 327 330 330 325 331 329 323 318 313 313 313 310 306 304 303 301 301 304 304 300 299 302 305 304 301 301 302 303 301 297 296 299 302 304 305 307 307 307 308 307
325 324 326 330 331 330 333 328 320 314 311 313 316 316 311 311 307 303 302 304 304 301 298 302 305 304 302 302 301 300 300 296 296 299 303 305 305 304 305 306 306 307
325 321 323 331 334 335 337 333 325 327 327 326 322 320 322 324 320 315 309 307 306 303 300 302 303 301 302 302 301 299 297 296 297 300 303 305 305 305 306 306 307 310
321 315 321 338 342 337 337 336 334 340 338 333 329 325 323 325 324 323 318 313 311 308 306 305 302 299 299 299 298 297 296 297 299 300 304 306 306 307 308 310 312 313
312 315 329 340 338 336 338 338 337 338 335 329 325 326 328 328 325 325 325 321 318 313 310 308 304 300 299 297 295 295 296 299 300 301 305 309 308 307 308 309 312 314
320 324 330 329 330 334 336 337 337 336 334 330 327 327 327 328 325 326 326 322 318 312 308 309 309 303 297 295 294 297 298 299 299 301 306 308 307 305 305 306 309 312
331 325 325 325 329 335 337 337 335 334 334 332 330 328 322 320 321 323 325 322 316 311 308 309 308 300 295 298 292 291 298 298 297 299 304 305 304 302 302 304 308 309
330 329 323 325 329 333 334 335 335 334 333 331 327 323 318 313 314 317 320 319 317 312 311 310 306 298 298 297 295 293 294 298 296 299 304 305 303 301 299 299 301 303
326 327 326 325 327 330 333 333 332 333 332 328 323 318 311 308 311 312 313 315 314 313 311 308 302 299 299 301 300 nan 300 301 303 304 306 305 302 299 296 296 298 297
326 327 328 327 327 329 329 329 330 330 328 326 324 318 311 308 307 309 308 311 312 311 308 302 295 297 303 304 305 nan nan 313 311 313 311 308 303 299 295 293 293 294
326 327 325 328 329 326 327 329 328 328 328 325 322 316 311 306 305 308 306 308 310 309 303 295 292 294 303 305 nan nan nan nan 316 319 316 312 306 299 295 294 294 294
328 326 325 325 327 325 325 325 326 328 324 323 319 316 312 304 305 305 305 307 308 307 300 289 281 292 300 304 nan nan nan nan 315 316 314 310 307 304 299 296 293 292
326 327 323 321 324 326 323 322 325 328 321 317 313 309 306 303 301 300 305 306 306 303 296 286 276 290 296 303 nan nan nan nan 311 311 310 307 305 303 298 293 291 290
323 323 321 319 321 323 326 324 326 326 319 315 311 309 308 305 302 305 306 305 304 298 289 280 269 281 293 298 299 nan nan 307 308 308 308 307 304 300 294 292 290 293
318 318 316 316 317 320 322 322 321 320 318 313 310 307 306 306 303 304 305 304 302 290 280 276 269 273 285 287 289 nan nan 303 303 306 308 305 301 296 291 292 296 301
314 314 313 314 316 317 318 319 318 315 313 308 304 303 304 304 307 311 310 301 293 280 268 267 261 266 279 282 286 291 296 298 301 304 306 303 297 293 293 296 300 304
310 310 311 312 311 312 314 315 312 310 308 305 304 305 306 307 309 311 307 298 283 270 265 265 260 255 271 283 283 284 293 295 298 302 303 300 294 290 294 303 307 306